Regional Weather Roundup
Issued by NWS Wakefield, VA

Home | Current Version | Previous Version | Graphics & Text | Print | Product List | Glossary On
Versions: 1 2 3 4 5 6 7 8 9 10 11 12 13 14 15 16 17 18 19 20 21 22 23 24 25 26 27
000
ASUS41 KAKQ 230815
RWRAKQ

REGIONAL WEATHER ROUNDUP
NATIONAL WEATHER SERVICE WAKEFIELD VA
400 AM EDT THU MAR 23 2017

Note: "fair" indicates few or no clouds below 12,000 feet with no
significant weather and/or obstructions to visibility. * = Denotes
station may not report precipitation (e.g., rain,snow,etc.),
thunder or fog.

VAZ042-051-052>054-056-230900-
NORTHERN VIRGINIA

CITY           SKY/WX    TMP DP  RH WIND       PRES   REMARKS
WASH NATIONAL  CLEAR     32   6  33 NE8       30.55R
DULLES         CLEAR     29   9  43 CALM      30.53R
FORT BELVOIR   CLEAR     28  11  50 CALM      30.54R
QUANTICO       CLEAR     35  10  35 E8        30.55R
FREDERICKSBRG* CLEAR     30  17  59 N3        30.53R
STAFFORD*      CLEAR     25  13  61 CALM      30.57S
WARRENTON      CLEAR     24  10  54 NE3       30.52R
CULPEPER*      CLEAR     26  14  59 CALM      30.54R
MANASSAS*      CLEAR     23  15  71 CALM      30.54R
LEESBURG*      CLEAR     30  10  43 N6        30.53S
WINCHESTER     CLEAR     23  10  58 CALM      30.51R
FRONT ROYAL*   SUNNY     27  12  54 CALM      30.50S
LURAY*         SUNNY     27  18  69 N6        30.49S
$$

VAZ048-049-060>072-079>083-230900-
CENTRAL AND SOUTH CENTRAL VIRGINIA

CITY           SKY/WX    TMP DP  RH WIND       PRES   REMARKS
RICHMOND       CLEAR     31  15  52 NE5       30.52R
CHESTERFIELD*  FAIR      30   1  29 N3        30.52S
PETERSBURG*    PTCLDY    24  18  77 CALM      30.51F
HANOVER        CLEAR     28  14  55 CALM      30.54R
TAPPAHANNOCK*  CLEAR     32   0  25 CALM      30.53R
QUINTON*       FAIR      29  17  59 CALM      30.52R
CHARLOTTSVILLE CLEAR     30   9  41 NE3       30.50R
GORDONSVILLE*  SUNNY     26  16  67 CALM      30.51R
ORANGE*        PTCLDY    30   9  40 CALM      30.53R
LOUISA*        CLEAR     34  10  37 NE3       30.50S
BUMPASS*       FAIR      33   8  36 CALM      30.52R
FARMVILLE*     CLOUDY    32  14  47 N3        30.49F
CREWE*         FAIR      29  14  52 CALM      30.50S
FORT PICKETT*  FAIR      32   2  27 N3        30.50S
CHASE CITY*    FAIR      29  15  57 CALM      30.50S
CLARKSVILLE*   FAIR      32  18  55 CALM      30.49S
SOUTH HILL*    CLEAR     27  19  71 CALM      30.55S
LAWRENCEVILLE* FAIR      31  13  47 CALM      30.50R
EMPORIA*       PTCLDY    28  19  69 NW5       30.51S
$$

VAZ088>098-230900-
SOUTHEAST VIRGINIA

CITY           SKY/WX    TMP DP  RH WIND       PRES   REMARKS
NORFOLK        CLEAR     37  17  44 N12       30.50R
VIRGINIA BEACH CLEAR     34  16  47 N5        30.49R
NORFOLK NAVAL  CLEAR     36   9  32 NE14      30.52R
WEST POINT*    PTCLDY    29  16  58 CALM      30.55R
SALUDA*        FAIR      33  13  44 NE5       30.52R
NEWPORT NEWS   CLEAR     34  17  50 NE8       30.51R
LANGLEY AFB    CLEAR     34  18  52 E10       30.51R
FORT EUSTIS    PTCLDY    34  15  45 NE5       30.49R
WILLIAMSBURG*  PTCLDY    34  21  60 CALM      30.53R
HR EXEC AP*    FAIR      34  18  51 NE7       30.50R
FRANKLIN*      PTCLDY    27  20  76 CALM      30.52R
US460-WAKEFLD  PTCLDY    26  19  74 CALM      30.51R
$$

VAZ020-022-025-037-045-230900-
WEST CENTRAL AND SOUTHWEST VIRGINIA

CITY           SKY/WX    TMP DP  RH WIND       PRES   REMARKS
STAUNTON*      PTCLDY    22  11  63 CALM      30.49S
WAYNESBORO*    SUNNY     22  13  69 CALM      30.46S
HOT SPRINGS VA CLOUDY    27   1  33 SE3       30.34F
LYNCHBURG      CLOUDY    30  13  49 NE3       30.49S
DANVILLE       CLEAR     32  15  49 NE5       30.48S
SOUTH BOSTON*  FAIR      30  17  60 NE3       30.50S
MARTINSVILLE   CLEAR     26  17  68 CALM      30.50R
ROANOKE        PTCLDY    34  15  46 CALM      30.48R
BLACKSBURG     CLOUDY    28  18  67 CALM      30.45S
DUBLIN*        CLOUDY    28  18  67 CALM      30.43S
MARION*        CLEAR     32  17  54 NE10      30.41S WCI  23
HILLSVILLE*    CLEAR     30  14  51 CALM      30.39R
RICHLANDS*     FAIR      36  15  42 CALM      30.33F
WISE*          CLEAR     32  14  47 CALM      30.34S
ABINGDON*      CLEAR     37  18  46 E8        30.35F
$$

MDZ021>025-VAZ099-100-230900-
SOUTHERN MARYLAND AND THE DELMARVA PENINSULA

CITY           SKY/WX    TMP DP  RH WIND       PRES   REMARKS
PATUXENT RIVER CLEAR     30   9  41 NE12      30.53R WCI  20
BAY BRIDGE APT CLEAR     30   7  37 MISG      30.54R
LEONARDTOWN    CLEAR     32  10  40 E3        30.55R
DOVER          CLEAR     24  10  54 N12       30.52R WCI  13
GEORGETOWN     CLEAR     29   6  38 N9        30.52R
EASTON         CLEAR     27   5  39 NE5       30.57R
CAMBRIDGE      CLEAR     28   3  34 NE5G12    30.53R
SALISBURY      CLEAR     27   5  39 N5        30.51R
OCEAN CITY     CLEAR     30   5  34 N14G25    30.51R WCI  19
WALLOPS ISLAND CLEAR     28   9  44 N3        30.52R
ACCOMACK*      CLEAR     30   8  39 N5        30.51R
$$

NCZ012>017-030>032-230900-
NORTH CENTRAL AND EASTERN NORTH CAROLINA

CITY           SKY/WX    TMP DP  RH WIND       PRES   REMARKS
ROANOKE RAPIDS FAIR      28  23  80 N3        30.49S
RALEIGH        PTCLDY    37  11  34 E8        30.47S
ELIZABETH CITY PTCLDY    37  24  59 N9        30.49R
AHOSKIE*       NOT AVBL
EDENTON*       PTCLDY    32  27  81 CALM      30.49R
CURRITUCK*     PTCLDY    39  22  52 N6        30.49S
KILL DEVIL HLS NOT AVBL
MANTEO         PTCLDY    38  24  55 NE8       30.47S
CAPE HATTERAS  CLEAR     42  22  44 NE10G21   30.44R
TARBORO*       NOT AVBL
GOLDSBORO      CLEAR     37  29  73 N6        30.45R
WASHINGTON     CLEAR     29  26  87 N3        30.48R
GREENVILLE     CLEAR     28  28 100 CALM      30.48R
NEW BERN       CLEAR     36  29  75 E3        30.46R
WILMINGTON     CLEAR     35  28  75 NE7       30.42S
$$

VAZ048-230900-
ELSEWHERE

CITY           SKY/WX    TMP DP  RH WIND       PRES   REMARKS
HARRISBURG PA  CLEAR     26   2  35 N5        30.53R
BALTIMORE      CLEAR     28   5  37 NE5       30.53R
ANNAPOLIS      CLEAR     33  12  41 N8        30.53R
ANDREWS AFB    CLEAR     26   8  47 NE3       30.52R
PHILADELPHIA   CLEAR     25   4  40 N15G24    30.54R WCI  13
HENDERSON NC   CLEAR     27  20  75 CALM      30.48S
GREENSBORO     CLEAR     35  15  44 E9        30.44S
ROCKY MOUNT    CLEAR     33  24  69 NE3       30.49R
$$

VAZ100-230900-
MARINE

STATION/POSITION TIME  TEMP    WIND        PRES    WAVE   SWELL
                       AIR SEA DIR/SP/G            HT/PER HT/PER
                 (UTC) (F)     (DEG/KT/KT) (MB)    (FT/S) (FT/S)
CAPE MAY NJ      0748   28 42   10/  7/ 15 1033.2R
LEWES DE         0748   31 41   20/ 23/ 29 1033.5R
OCEAN-CITY-INLET 0748   33 43   20/ 14/ 21 1033.2R
WACHAPREAGUE VA  0748   31 47   20/  7/ 10 1032.9R
THOMAS POINT MD  0800   32 43   20/ 17/ 20   N/A
GOOSES REEF MD   0800   33 43   70/ 14/ 16 1034.1    2/ 3
COVE POINT MD    0748   31      60/ 12/ 16 1034.4R
BISHOPS HEAD MD  0748   31 42   30/ 11/ 14 1033.8R
PINEY POINT MD   0748           70/  5/  6   N/A
POTOMAC MD       0800   34 45   40/ 14/ 17 1033.1    1/ 2
CAMBRIDGE MD     0748   31 44   30/  9/ 10 1033.1R
LEWISETTA VA     0748   34 47   40/  8/ 12 1033.5R
RAPPAHANNOCK LGT 0748           20/ 19/ 22 1033.6R
STINGRAY PT      0750   36      40/ 16/ 19 1033.2R
YORK RVR RNG VA  0748   38      30/ 14/ 16 1032.5R
YORKTOWN VA      0748   38 48   50/ 11/ 14 1033.1R
JAMESTOWN VA     0800   36 49   30/  4/  6   N/A     0
DOMINION TERM VA 0748   37      40/  3/  6 1033.2R
KIPTOPEKE VA     0748      46   30/  5/  7   N/A
CHES BAY BRIDGE  0748   37 47   30/ 14/ 17 1032.7R
CAPE HENRY VA    0748   38      10/ 17/ 19   N/A
WILLOUBY STN VA  0748   37      50/ 14/ 16 1034.0R
S CRANEY ISL VA  0748   38      40/ 14/ 17 1032.7R
CAPE HENRY BUOY  0742      45                N/A     6/ 8
CAPE CHARLES BUO 0751      45                N/A     5/ 7   2/11
OFFSHORE WE BUOY 0751      45                N/A     7/ 8   2/11
64NM E OF VA BCH 0750   40 49   20/ 23/ 27 1030.7R   9/ 8
DUCK PIER NC     0748   41 48   20/ 16/ 20 1031.2R
44100 DUCK FRF   0705      47                N/A     7/ 8   2/11
44056 DUCK FRF   0730      47                N/A     6/ 9   2/11
OREGON INLET NC  0742   40 51   10/ 11/ 17 1031.4S
HATTERAS NC      0748   42 54   30/ 14/ 20 1030.2S
DIAMOND SHLS NC  0750   46 74   20/ 21/ 27 1029.9S  10/ 9   5/11
CAPE LOOKOUT NC  0700   45      40/ 17/ 20 1030.2S
$$




USA.gov is the U.S. government's official web portal to all federal, state and local government web resources and services.